sat.trackr.live / text

‹ back to catalog

LILIUM-1

NORAD 58467 · 2023-185F

PAYLOAD ACTIVE UNKNOWN

§ Identity

Operator
Country
ROC
Launch date
2023-12-01
Launch site
AFWTR
Launch vehicle
Mass (kg)
RCS (m²)

External: N2YO · Heavens-Above · Gunter

§ Orbital elements

Epoch: 2026-05-24T12:31:39.963648Z

Period
89.90 min
Inclination
97.3212°
Eccentricity
0.0010548
Mean motion
16.01847451 rev/d
Perigee alt
262.3 km
Apogee alt
276.3 km
Semi-major
6,647.4 km
B*
1.2394e-3
RAAN
228.1401°
Arg perigee
236.8078°
Mean anomaly
123.2191°
Rev number
13,885

§ Raw data

LILIUM-11 58467U 23185F   26144.52199032  .00699904  23186-3  12394-2 0  99982 58467  97.3212 228.1401 0010548 236.8078 123.2191 16.01847451138857

JSON: /api/v1/satellites/58467 · /tle

For live sub-satellite position, see the globe view (requires WebGL).

§ Visibility from observer

Set your observer location to see the next 7 days of passes ≥ 10°. The values pass through the URL so the page stays shareable.

No JS? Fill the form by hand. The geolocation button needs JavaScript.

§ Radio — SatNOGS DB

ModeDescriptionDownlinkUplink
BPSK Mode U - Transmitter 400.455 MHz
BPSK Telemetry 436.886 MHz

2 transmitters · refreshed weekly from db.satnogs.org